Regional Weather Roundup
Issued by NWS Cleveland, OH

Home | Current Version | Previous Version | Graphics & Text | Print | Product List | Glossary On
Versions: 1 2 3 4 5 6 7 8 9 10 11 12 13 14 15 16 17 18 19 20 21 22 23 24 25 26 27 28 29 30 31 32 33 34 35 36 37 38 39 40 41 42 43 44 45 46 47 48 49 50
000
ASUS41 KCLE 181902
RWRCLE
OHIO REGIONAL WEATHER ROUNDUP
NATIONAL WEATHER SERVICE CLEVELAND, OH
300 PM EDT FRI APR 18 2014

NOTE: "FAIR" INDICATES FEW OR NO CLOUDS BELOW 12,000 FEET WITH NO
SIGNIFICANT WEATHER AND/OR OBSTRUCTIONS TO VISIBILITY.

OHZ001>008-015>018-024>027-034-035-043-044-182000-
   NORTHWEST OHIO

CITY           SKY/WX    TMP DP  RH WIND       PRES   REMARKS
DEFIANCE       PTSUNNY   65  39  38 NW7       30.25F
FINDLAY        CLOUDY    66  39  37 W16G25    30.24F
TOLEDO EXPRESS PTSUNNY   64  40  41 W12G20    30.24F
TOLEDO EXEC    PTSUNNY   66  40  38 W15G21    30.26S
LIMA           PTSUNNY   65  38  36 CALM      30.25F
$$

OHZ009>014-019>023-028>033-038-089-182000-
   NORTHEAST OHIO

CITY           SKY/WX    TMP DP  RH WIND       PRES   REMARKS
CLE-HOPKINS    CLOUDY    64  40  41 CALM      30.28F
CLE-LAKEFRONT  CLOUDY    58  44  60 N3        30.25F
CUY CO. ARPT   PTSUNNY   63  39  42 NW7       30.27F
LORAIN-ELYRIA  CLOUDY    65  40  39 NE5       30.25F
ASHTABULA      MOSUNNY   61  38  42 N9        30.26F
AKRON-CANTON   PTSUNNY   67  36  31 NW13      30.25S
WOOSTER        MOSUNNY   66  38  35 NW14      30.25F
MANSFIELD      MOSUNNY   66  39  37 VRB6      30.26F
YOUNGSTOWN     CLOUDY    64  33  31 NW6       30.24F
$$

OHZ042-051>053-060>062-070>072-077>081-182000-
  SOUTHWEST OHIO

CITY           SKY/WX    TMP DP  RH WIND       PRES   REMARKS
CINC-COVINGTON PTSUNNY   69  37  30 VRB3      30.27F
CINC-LUNKEN    PTSUNNY   68  40  35 MISG      30.27F
HAMILTON       MOSUNNY   71  39  31 CALM      30.27F
DAYTON         PTSUNNY   68  38  33 VRB5G17   30.27F
WRIGHT-PAT AFB MOSUNNY   67  38  34 NW5       30.26F
DAYTON GENERAL MOSUNNY   67  37  33 N9        30.26F
WILMINGTON     PTSUNNY   66  34  30 VRB3      30.27F
$$

OHZ036-037-039>041-045>050-054>059-063>069-073>076-082>088-182000-
  CENTRAL AND SOUTHEAST OHIO

CITY           SKY/WX    TMP DP  RH WIND       PRES   REMARKS
COLUMBUS       PTSUNNY   70  34  26 W10       30.25F
OSU AIRPORT    PTSUNNY   67  34  29 VRB3      30.25F
BOLTON FIELD   SUNNY     68  39  34 CALM      30.26F
RICKENBACK AFB NOT AVBL
NEWARK         PTSUNNY   68  33  27 W8        30.25F
MARION         SUNNY     64  37  36 W8        30.26F
LANCASTER      PTSUNNY   68  36  30 VRB3      30.26F
ZANESVILLE     PTSUNNY   69  33  26 CALM      30.25F
NEW PHILLY     PTSUNNY   68  34  28 W10G20    30.25F
$$



USA.gov is the U.S. government's official web portal to all federal, state and local government web resources and services.